Regional Weather Roundup
Issued by NWS Lake Charles, LA

Home | Current Version | Previous Version | Text Only | Print | Product List | Glossary On
Versions: 1 2 3 4 5 6 7 8 9 10 11 12 13 14 15 16 17 18 19 20 21 22 23 24 25 26 27 28 29 30 31 32 33 34 35 36 37 38 39 40 41 42 43 44 45 46 47 48 49 50
000
ASUS44 KLCH 211210
RWRLCH
RWRLCH
REGIONAL WEATHER ROUNDUP
NATIONAL WEATHER SERVICE LAKE CHARLES LA
700 AM CDT TUE APR 21 2015

Note: "fair" indicates few or no clouds below 12,000 feet with no
significant weather and/or obstructions to visibility.


ACROSS SOUTHEAST TEXAS

CITY           SKY/WX    TMP DP  RH WIND       PRES   REMARKS
BEAUMONT       CLEAR     59  49  69 NE5       30.01R
BEAUMONT CITY    N/A     55  50  83 CALM      30.01R
ORANGE         SUNNY     55  47  74 CALM      30.02R
JASPER         MOCLDY    55  54  95 CALM      30.04R
$$

ACROSS CENTRAL LOUISIANA

CITY           SKY/WX    TMP DP  RH WIND       PRES   REMARKS
LEESVILLE      MOCLDY    56  44  62 NE6       30.01R
FULLERTON        N/A     57  46  66 VRB3      30.00R
ALEXANDRIA INT MOCLDY    54  44  69 NE8       30.01R
ESLER FIELD    MOCLDY    55  48  77 CALM      30.03R
DERIDDER         N/A     53  49  85 CALM      30.04R
OAKDALE        SUNNY     50  49  96 CALM      30.02R
OPELOUSAS        N/A     56  49  76 NE5       30.01R
$$

ACROSS SOUTHWEST AND SOUTH CENTRAL LOUISIANA

CITY           SKY/WX    TMP DP  RH WIND       PRES   REMARKS
SULPHUR        SUNNY    N/A N/A N/A N3        30.02R
LAKE CHARLES   CLEAR     55  48  77 NE6       30.01R
CHENNAULT INT  CLEAR     55  48  76 CALM      29.99S
CAMERON PHI    SUNNY     61  50  67 E8        30.03R
DEQUINCY         N/A     51  51 100 CALM      30.02R
JENNINGS         N/A     57  49  73 NE6       30.01R
LAFAYETTE      PTCLDY    58  51  78 NE5       30.01R
NEW IBERIA     MOCLDY    62  50  64 NE8       30.02R
ABBEVILLE        N/A     58  50  74 NE5       30.02R
PATTERSON      CLOUDY    63  52  67 NE6       30.03R
SALT POINT       N/A     62  57  83 CALM      30.01R
$$

SELECTED SITES ACROSS THE REGION

CITY           SKY/WX    TMP DP  RH WIND       PRES   REMARKS
HOUSTON BUSH   PTCLDY    56  52  86 E5        29.98S
HOUSTON HOBBY  PTCLDY    61  51  70 E7        29.98R
GALVESTON      MOCLDY    66  57  72 NE12      29.97R
COLLEGE STAT   CLEAR     55  49  80 NE6       29.99R
CONROE         CLEAR     51  48  89 CALM      29.99S
HUNTSVILLE     CLEAR     52  50  93 E3        30.00R
LUFKIN         CLOUDY    60  46  59 NE8       30.01R
SHREVEPORT     MOCLDY    51  48  89 CALM      30.02S
MONROE         CLEAR     48  44  86 NE3       30.06R
NATCHEZ MS     PTCLDY    48  45  87 N3        30.04R
BATON ROUGE    PTCLDY    54  50  86 NE3       30.02R
N.O. INTL ARPT CLOUDY    67  45  45 NE13      30.02R
SLIDELL        CLOUDY    55  53  93 CALM      30.02R
$$

MARINE REPORTS

STATION/POSITION TIME  TEMP    WIND        PRES    VSBY  WAVE
                       AIR SEA DIR/SP/G                  HT/PER
                 (UTC) (F)     (DEG/KT/KT) (MB)    (MI)  (FT/S)
BUOY 30 S HIGH I 1150   69 72   60/ 16/ 17 1014.5R         2/ 3
SEA RIM ST PARK  1200   62      50/  5/  6 1016.8R
PORT ARTHUR      1100      72   40/  2/  5 1014.9F
SABINE PASS N    1100   62 72   60/  7/  8 1015.0F
TEXAS POINT      NOT AVBL
CALCASIEU PASS   1100   63 73   60/  8/  9   N/A
LK CHARLES BEACH 1100   60 72              1015.6S
MARSH ISLAND     NOT AVBL
FRESH WATER LOCK 1100   62 76   20/  5/  6 1015.4R
AMERADA PASS     1100   63 68   30/  2/  4 1015.5R
$$


USA.gov is the U.S. government's official web portal to all federal, state and local government web resources and services.